Pontiac, MI

6:26 AM EDT on April 26, 2017 (GMT -0400)
Oakland County International

Weather History for KPTK - September, 2013

Change the Weather History Date:

Tuesday, September 3, 2013

  Actual Average Record
Temperature  
Mean Temperature 64 °F -  
Max Temperature 73 °F 76 °F 91 °F (2008)
Min Temperature 55 °F 56 °F 50 °F (1997)
Degree Days  
Heating Degree Days 1    
Growing Degree Days 14 (Base 50)    
Moisture  
Dew Point 51 °F    
Average Humidity 71    
Maximum Humidity 88    
Minimum Humidity 46    
Precipitation  
Precipitation 0.00 in - - ()
Sea Level Pressure  
Sea Level Pressure 29.96 in    
Wind  
Wind Speed 10 mph (WNW)    
Max Wind Speed 15 mph    
Max Gust Speed 20 mph    
Visibility 10 miles    
Events Rain    
Averages and records for this station are not official NWS values.
T = Trace of Precipitation, MM = Missing Value Source: NWS Daily Summary

Daily Weather History Graph

Daily Weather History Graph

Search for Another Location

Airport or City:

Trip Planner

Search our weather history database for the weather conditions in past years. The results will help you decide how hot, cold, wet, or windy it might be!

Date:

Astronomy

Sep. 03, 2013 Rise Set
Actual Time 7:00 AM EDT 8:04 PM EDT
Civil Twilight 6:31 AM EDT 8:32 PM EDT
Nautical Twilight 5:57 AM EDT 9:07 PM EDT
Astronomical Twilight 5:21 AM EDT 9:43 PM EDT
Moon 5:12 AM EDT (9/3) 6:51 PM EDT (9/3)
Length of Visible Light 14h 01m
Length of Day
13h 03m
Waning Crescent, 3% of the Moon is Illuminated
Sep 3
Waning Crescent
Sep 5
New
Sep 12
First Quarter
Sep 19
Full
Sep 26
Last Quarter

Hourly Weather History & Observations

Time (EDT) Temp. Dew Point Humidity Pressure Visibility Wind Dir Wind Speed Gust Speed Precip Events Conditions
12:30 AM 57.2 °F 53.6 °F 88% 29.91 in 10.0 mi NW 9.2 mph - N/A   Overcast
12:38 AM 57.2 °F 53.6 °F 88% 29.91 in 10.0 mi NW 10.4 mph - N/A   Overcast
12:46 AM 57.2 °F 53.6 °F 88% 29.91 in 8.0 mi NW 11.5 mph - 0.00 in Rain Light Rain
12:53 AM 55.9 °F 52.0 °F 87% 29.91 in 9.0 mi WNW 15.0 mph 19.6 mph 0.00 in Rain Light Rain
1:21 AM 55.4 °F 51.8 °F 88% 29.92 in 10.0 mi NW 12.7 mph - 0.00 in   Overcast
1:53 AM 55.9 °F 51.1 °F 84% 29.91 in 10.0 mi WNW 9.2 mph - 0.00 in   Overcast
2:13 AM 55.4 °F 51.8 °F 88% 29.92 in 10.0 mi WNW 9.2 mph - N/A   Overcast
2:50 AM 55.4 °F 50.0 °F 82% 29.92 in 10.0 mi WNW 8.1 mph - N/A   Overcast
2:53 AM 55.9 °F 50.0 °F 80% 29.91 in 10.0 mi WNW 8.1 mph - N/A   Overcast
3:05 AM 57.2 °F 50.0 °F 77% 29.92 in 10.0 mi WNW 9.2 mph - N/A   Overcast
3:53 AM 57.0 °F 50.0 °F 77% 29.91 in 10.0 mi NW 11.5 mph - N/A   Overcast
4:53 AM 57.0 °F 50.0 °F 77% 29.92 in 10.0 mi WNW 9.2 mph - N/A   Overcast
5:53 AM 55.9 °F 50.0 °F 80% 29.94 in 10.0 mi NW 10.4 mph - N/A   Overcast
6:53 AM 57.0 °F 50.0 °F 77% 29.95 in 10.0 mi WNW 6.9 mph - N/A   Overcast
7:53 AM 57.0 °F 50.0 °F 77% 29.96 in 10.0 mi WNW 6.9 mph - N/A   Overcast
8:53 AM 57.9 °F 51.1 °F 78% 29.99 in 10.0 mi WNW 10.4 mph - N/A   Overcast
9:53 AM 59.0 °F 51.1 °F 75% 29.99 in 10.0 mi NW 10.4 mph - N/A   Overcast
10:53 AM 62.1 °F 50.0 °F 65% 30.00 in 10.0 mi NNW 12.7 mph - N/A   Mostly Cloudy
11:53 AM 66.0 °F 51.1 °F 59% 30.00 in 10.0 mi NNW 11.5 mph - N/A   Scattered Clouds
12:53 PM 66.0 °F 51.1 °F 59% 30.00 in 10.0 mi NW 10.4 mph - N/A   Mostly Cloudy
1:53 PM 70.0 °F 52.0 °F 53% 30.00 in 10.0 mi WNW 9.2 mph - N/A   Scattered Clouds
2:53 PM 71.1 °F 52.0 °F 51% 29.99 in 10.0 mi NW 11.5 mph 19.6 mph N/A   Partly Cloudy
3:53 PM 72.0 °F 51.1 °F 48% 29.97 in 10.0 mi NW 10.4 mph - N/A   Scattered Clouds
4:53 PM 73.0 °F 51.1 °F 46% 29.98 in 10.0 mi NNW 11.5 mph - N/A   Scattered Clouds
5:53 PM 72.0 °F 51.1 °F 48% 29.97 in 10.0 mi WNW 9.2 mph - N/A   Scattered Clouds
6:53 PM 72.0 °F 51.1 °F 48% 29.98 in 10.0 mi WNW 8.1 mph - N/A   Scattered Clouds
7:53 PM 69.1 °F 51.1 °F 53% 29.98 in 10.0 mi West 5.8 mph - N/A   Partly Cloudy
8:53 PM 66.0 °F 53.1 °F 63% 29.99 in 10.0 mi WSW 3.5 mph - N/A   Partly Cloudy
9:53 PM 63.0 °F 53.1 °F 70% 30.00 in 10.0 mi Calm Calm - N/A   Clear
10:53 PM 62.1 °F 54.0 °F 75% 30.01 in 10.0 mi West 6.9 mph - N/A   Clear
11:53 PM 62.1 °F 53.1 °F 72% 30.01 in 10.0 mi West 9.2 mph - N/A   Clear